星链-31125 (STARLINK-31125 )

导读

STARLINK-31125是美国SpaceX公司星链(Starlink)卫星互联网星座中的一颗卫星,于北京时间2023年12月29日08:00发射,属于星链第二代卫星组网批次,运行在近地轨道。星链项目旨在为全球偏远地区提供低延迟高速互联网接入,该星配备氪离子推进系统,可自主完成轨道机动与避碰,退役后会再入大气层完全焚毁,减少空间碎片隐患。

Basic Information
目录编号:
58678
目录名称:
STARLINK-31125
国际标识:
2023-211M
轨道中心:
EARTH
卫星名称:
星链-31125
卫星全名:
星链-31125 (STARLINK-31125 )
卫星状态:
在轨 (已飞行980 天)
发射日期:
2023-12-29 UTC
国别 :
美国 (US)
星等 :
--
Orbit Information
数据来源 国际轨道数据 AOE轨道数据
星历时间 2026-09-04T11:06:38+0800
12小时前
查看轨道信息
2026-09-03T23:00:00+0800
1天前
查看轨道信息
半长轴 6861.197km 6861.167km
偏心率 0.000086 0.0001152
轨道倾角 43.002° 43.001°
近地点辐角 287.891° 301.236°
升交点赤经 157.636° 160.488°
平近点角 72.185° 160.608°
近地点 482.469km 482.239km
远地点 483.651km 483.821km
周期 94.267分钟 94.266分钟
每日圈数 15.275766 15.275867
Detailed Information
固有亮度:
5
最大亮度:
0.3
卫星平台:
Starlink v2.0 mini
覆盖范围:
全球
运营商:
太空探索技术公司
运营商所在国:
美国
制造商(研发单位):
太空探索技术公司
制造商所在国:
美国
使用方式:
暂无
Satellite Introduction
星链(Starlink)计划是由太空探索技术公司(SpaceX)提出的一个巨型低轨卫星互联网星座项目,计划在2019年至2024年间在太空搭建由约1.2万颗卫星组成的“星链”网络,其中1584颗将部署在地球上空550千米处的近地轨道,并从2020年开始工作。该卫星仍在工作。
2D Orbit Map
3D Orbit Map
Orbit Altitude Analysis Chart
Orbit Inclination Analysis Chart
Orbit Comprehensive Analysis Chart
View Comprehensive Chart
Conjunction Data List
Event ID Objects TCA Miss Dist (km) Collision Risk Probability Collision Risk Index (CRI) Action
CDM_260906-210805-867806-716621
2026-09-06T
21:08:56+0000
0.402 km
远距离
2.542728E-4 高风险 0.83
CDM_260906-210805-867806-425321
2026-09-06T
21:08:25+0000
0.483 km
远距离
1.730051E-4 高风险 0.8
CDM_260903-113605-867806-403021
2026-09-03T
11:36:12+0000
1.631 km
极远距离
4.420651E-6 低风险 0.48
CDM_260906-224205-867806-425321
2026-09-06T
22:42:34+0000
2.294 km
极远距离
1.611272E-6 低风险 0.39
CDM_260903-053404-943805-867821
2026-09-03T
05:34:51+0000
1.765 km
极远距离
1.611256E-6 低风险 0.39
CDM_260906-195805-867806-309421
2026-09-06T
19:58:44+0000
2.421 km
极远距离
1.550762E-6 低风险 0.39
CDM_260906-193405-867806-425321
2026-09-06T
19:34:15+0000
2.410 km
极远距离
1.462986E-6 低风险 0.38
CDM_260906-193405-867806-716621
2026-09-06T
19:34:47+0000
2.570 km
极远距离
1.29886E-6 低风险 0.37
CDM_260906-224305-867806-716621
2026-09-06T
22:43:05+0000
2.819 km
极远距离
1.13204E-6 低风险 0.36
CDM_260903-044704-943805-867821
2026-09-03T
04:47:47+0000
2.761 km
极远距离
6.646779E-7 极低风险 0.31